Xi Wang 5-2

operational
NORAD ID: 67070 Int'l Des: 2025-296 Owner: CAST Country: CN
NOTLE

Über Xi Wang 5-2

Beschreibung wird geladen...

Live-Position

3D-Globus wird geladen...

Nächste Überflüge

Höhenverlauf

Altitude vs Time

uPlot chart will show altitude changes over time

Zweizeiliger Elementsatz

1 67070U 25296B 25347.04770833 -.00000162 00000-0 00000-0 0 9997
2 67070 49.9600 71.6976 0011670 307.0150 220.3788 14.29360286 08
Epoch: 13. Dez. 2025 • Age: 32 hours

Aktueller Status

Höhe 800.7 km
Geschwindigkeit 7.45 km/s
Subsatellitenpunkt 11.68°N, 17.61°E
Startdatum 13. Dez. 2025
Alter 1 days
Typ other

Technische Details

Klassifizierung Payload
Masse 12.00 kg
Trockenmasse 12.00 kg
Gesamtmasse 12.00 kg
Länge 0.30 m
Durchmesser 0.20 m
Spannweite 6.00 m
Form Box + 2 pan
Hersteller DFH
Bus-Typ Cubesat 6U
Phasenstatus In Orbit
Besitzer/Staat CAST/CN

Große Konstellationen

Loading constellations...